Retour au catalogue

CZ-6A DEB

ActifSSO
NORAD 54546·DEBRIS·🇨🇳 China

Lancé Nov 11, 2022 depuis Taiyuan Satellite Launch Center

Loading…

Prochains Passages (prochaines 24 heures)

TLE

FraisSource: Space-Track

Époque: Sep 14, 2026, 06:23 UTC

1 54546U 22151KW  26257.26598771  .00000113  00000-0  79537-4 0  9992
2 54546  98.7962 263.4102 0024710  78.0997 282.2946 14.15672411198079

Suivez CZ-6A DEB en temps réel avec AllMySat

Download on the App Store